This is the latest recevied weather packets stored in our database for station/object ED3YAB-7. If no packets are shown the sender has not sent any weather packets the latest 10 day(s).
| Time | Temp. | Humidity | Pressure | Rain* | Wind** | Luminosity | Snow |
|---|---|---|---|---|---|---|---|
| 1777431202 | 16.11° C | 60% | 1016.9 hPa | - | - | - | - |
| 1777430002 | 16.11° C | 60% | 1017.2 hPa | - | - | - | - |
| 1777428802 | 16.11° C | 61% | 1017.2 hPa | - | - | - | - |
| 1777427602 | 16.11° C | 61% | 1017.2 hPa | - | - | - | - |
| 1777426402 | 16.11° C | 61% | 1017.3 hPa | - | - | - | - |
| 1777425201 | 16.11° C | 59% | 1017.5 hPa | - | - | - | - |
| 1777424001 | 16.67° C | 58% | 1017.6 hPa | - | - | - | - |
| 1777422801 | 16.67° C | 57% | 1017.8 hPa | - | - | - | - |
| 1777421601 | 16.67° C | 59% | 1017.8 hPa | - | - | - | - |
| 1777420401 | 16.11° C | 61% | 1018.1 hPa | - | - | - | - |
| 1777419201 | 16.11° C | 59% | 1018.1 hPa | - | - | - | - |
| 1777418000 | 15.56° C | 59% | 1018.3 hPa | - | - | - | - |
| 1777416800 | 16.11° C | 60% | 1018.2 hPa | - | - | - | - |
| 1777415607 | 16.11° C | 59% | 1018.2 hPa | - | - | - | - |
| 1777414400 | 15.56° C | 59% | 1018 hPa | - | - | - | - |
| 1777413200 | 15.56° C | 58% | 1017.8 hPa | - | - | - | - |
| 1777412000 | 16.11° C | 58% | 1017.2 hPa | - | - | - | - |
| 1777411402 | 16.11° C | 58% | 1017.1 hPa | - | - | - | - |
| 1777410202 | 16.11° C | 57% | 1017 hPa | - | - | - | - |
| 1777409002 | 16.67° C | 56% | 1017 hPa | - | - | - | - |
| 1777407802 | 16.67° C | 53% | 1016.9 hPa | - | - | - | - |
| 1777406602 | 17.22° C | 53% | 1016.5 hPa | - | - | - | - |
| 1777405401 | 16.67° C | 54% | 1016.2 hPa | - | - | - | - |
| 1777404209 | 17.22° C | 52% | 1016 hPa | - | - | - | - |
| 1777404201 | 17.22° C | 52% | 1016 hPa | - | - | - | - |
* Rain since midnight (hover to see other rain measurements)
** Current wind speed in m/s (hover to see current wind gust speed)